Regional Weather Roundup
Issued by NWS

Home | Current Version | Previous Version | Text Only | Print | Product List | Glossary On
Versions: 1 2 3 4 5 6 7 8 9 10 11 12 13 14 15 16 17 18 19 20 21 22 23 24 25 26 27 28 29 30 31 32 33 34 35 36 37 38 39 40 41 42 43 44 45 46 47 48 49 50
000
ASUS45 KTFX 241719
RWRMT
MONTANA HOURLY WEATHER ROUNDUP
NATIONAL WEATHER SERVICE GREAT FALLS MT
1119 AM MDT THU APR 24 2014

NOTE: "FAIR" INDICATES FEW OR NO CLOUDS BELOW 12000 FEET WITH NO
SIGNIFICANT WEATHER AND/OR OBSTRUCTIONS TO VISIBILITY.

* THESE STATIONS ARE NOT UNDER NWS QUALITY CONTROL. THEY DO NOT
   REPORT WEATHER SUCH AS PRECIPITATION OR FOG.

MTZ001>007-043-241800-
WEST OF THE DIVIDE
CITY           SKY/WX    TMP DP  RH WIND       PRES   REMARKS
KALISPELL      LGT RAIN  41  37  86 SE10      29.79S
MISSOULA       CLOUDY    43  37  79 CALM      29.83S
BUTTE          CLOUDY    45  27  49 SW14      29.84S
MULLAN PASS    LGT SNOW  30  28  92 VRB5      29.75R VSB M1/4 WCI  25
* ESSEX        N/A       38  33  82 NW2        N/A
* LINCOLN      N/A       39  35  86 N1         N/A
* LOOKOUT PASS N/A       34  34 100 SW2        N/A
* PLAINS APT   CLOUDY    45  37  74 CALM      29.82S
* POLSON       N/A       40  38  93 S1         N/A
* RONAN APT    CLOUDY    43  37  79 N/A        N/A
* SEELEY LAKE  N/A       36  34  92 N/A        N/A
* THOMP F APT  CLOUDY    33  27  79 NE5G10     N/A   WCI  28
$$

MTZ008-052>055-241800-
SOUTHWEST MONTANA
CITY           SKY/WX    TMP DP  RH WIND       PRES   REMARKS
BOZEMAN        CLOUDY    48  25  41 S12       29.84S
DILLON         CLOUDY    46  27  48 S17       29.84S
W YELLOWSTONE  N/A       34  28  79 SW5G16     N/A   WCI  29
* THREE FORKS  CLOUDY    48  27  44 S24G35     N/A
* BOULDER HILL N/A       42  20  41 SW16G21    N/A
* MONIDA PASS  N/A       30  25  82 SE18G24    N/A   WCI  18
* RAYNOLDS PAS N/A       30  15  54 S16G22     N/A   WCI  19
* WHITEHALL    N/A       48  24  39 SW11G22    N/A
* WISE RIVER   N/A       40  26  57 N8G16      N/A   WCI  35
$$

MTZ009>010-012-014-046-048-049-054-241800-
EAST SLOPES AND CENTRAL MONTANA
CITY           SKY/WX    TMP DP  RH WIND       PRES   REMARKS
CUT BANK       CLOUDY    46  27  48 S13       29.73S
GREAT FALLS    CLOUDY    48  30  50 SW9       29.77S
HELENA         CLOUDY    43  36  76 CALM      29.80F
MALMSTROM AFB  CLOUDY    52  28  40 SW15      29.73F
* CONRAD       CLOUDY    46  34  63 S10G17     N/A
* DEARBORN     N/A       45  32  60 S12        N/A
* EAST GLACIER N/A       39  28  65 W20        N/A   WCI  29
* MONARCH      N/A       42  19  40 SW22G27    N/A
* PENDROY      N/A       42  28  58 SW5        N/A
* ROGERS PASS  N/A       36  30  79 SE9G17     N/A   WCI  29
* SAINT MARY   N/A       41  28  60 S6G13      N/A
* SWEET GRASS  N/A       47  22  37 SE3G12     N/A
* WHITE SULPH  N/A       44  23  43 SW10G16    N/A
$$

MTZ011-013-016-021-035-040-045-047-050-051-241800-
NORTH CENTRAL MONTANA
CITY           SKY/WX    TMP DP  RH WIND       PRES   REMARKS
HAVRE          SUNNY     52  23  32 W10       29.76F
LEWISTOWN      CLOUDY    48  27  44 W10       29.78F
* CHINOOK      SUNNY     52  21  30 W15       29.76F
* FORT BENTON  PTSUNNY   55  27  34 SW17G22   29.76F
* MALTA APT    SUNNY     54  28  37 N/A       29.75S
* CHESTER      N/A       46  25  44 W5G10      N/A
* DENTON       N/A       52  25  35 W14G19     N/A
* GEYSER       N/A       51  24  35 SW22G28    N/A
* JUDITH GAP   N/A       49  24  38 W22G27     N/A
* LOMA         N/A       52  31  45 W9         N/A
$$

MTZ017>020-022>027-061-062-241800-
NORTHEAST MONTANA
CITY           SKY/WX    TMP DP  RH WIND       PRES   REMARKS
GLASGOW        SUNNY     54  30  40 W14       29.77S
GLENDIVE       SUNNY     55  25  31 W25G32    29.78F
JORDAN         SUNNY     54  21  27 W18G26    29.79S
SIDNEY         PTSUNNY   55  32  42 NW13G20   29.80R
WOLF POINT     PTSUNNY   54  32  43 NW16G24   29.77S
* BEAVER HILL  N/A       51  22  32 W19G25     N/A
* CIRCLE       N/A       50  30  46 W13G19     N/A
* LINDSAY DVD  N/A       49  24  38 W17G29     N/A
* NAVAJO       N/A       49  29  46 NW16       N/A
* SACO         N/A       52  29  41 SW12G19    N/A
* SCOBEY APT   PTCLDY    52  27  38 W14       29.74R
$$

MTZ028>042-056>058-241800-
SOUTHCENTRAL AND SOUTHEAST MONTANA
CITY           SKY/WX    TMP DP  RH WIND       PRES   REMARKS
BAKER          SUNNY     52  21  30 W23G32    29.81S
BILLINGS       PTSUNNY   54  23  30 S8        29.82F
LIVINGSTON     CLOUDY    52  23  32 SW31G37   29.82R
MILES CITY     SUNNY     55  21  27 W16       29.82S
* EKALAKA APT  SUNNY     52  21  30 W18G25    29.83S
* LAUREL APT   PTCLDY    54  21  27 S8         N/A
* ROUNDUP APT  PTCLDY    54  27  35 SW14G22    N/A
* HYSHAM       N/A       51  26  38 W8G17      N/A
* LAME DEER    N/A       46  26  46 NW14G20    N/A
* REED POINT   N/A       57  29  34 W1G10      N/A
* ROSCOE HILL  N/A       52  16  24 S9G17      N/A
$$

REGIONAL REPORTS...DAKOTAS
CITY           SKY/WX    TMP DP  RH WIND       PRES   REMARKS
WILLISTON      PTSUNNY   54  36  51 NW16G21   29.74R
DICKINSON      SUNNY     55  21  27 W23G35    29.74S
CROSBY         N/A       50  41  71 N/A        N/A
TIOGA          PTSUNNY   50  39  66 W14       29.74R
WATFORD CITY   SUNNY     54  32  43 W20G28    29.72R
BISMARCK       SUNNY     61  25  25 NW12G23   29.74F
GRAND FORKS    FOG       43  39  86 SE13      29.72F
FARGO          LGT RAIN  43  39  86 S6        29.74F VSB 3
BUFFALO SD     PTCLDY    54  25  33 W20G31    29.76F
RAPID CITY     SUNNY     55  25  31 N8G21     29.85S
$$

REGIONAL REPORTS...WYOMING/IDAHO/WASHINGTON
CITY           SKY/WX    TMP DP  RH WIND       PRES   REMARKS
GILLETTE       SUNNY     52  25  35 VRB3      29.87F
SHERIDAN       SUNNY     54  23  30 E7        29.85F
CODY           PTCLDY    54  23  30 W12       29.86S
YELLOWSTONE LA PTSUNNY   34  23  64 VRB5      29.97F WCI  29
SALMON         CLOUDY    46  36  68 S17       29.88R
MULLAN PASS    LGT SNOW  30  28  92 VRB5      29.75S VSB M1/4 WCI  25
SAND POINT     RAIN      39  39 100 CALM      29.80R
SPOKANE        CLOUDY    48  43  83 SW20G29   29.74R
$$

REGIONAL REPORTS...ALBERTA
CITY           SKY/WX    TMP DP  RH WIND       PRES   REMARKS
CALGARY        SUNNY     46  14  27 SW5       29.68S
LETHBRIDGE     PTSUNNY   50  19  29 W14G24    29.72R
MEDICINE HAT   SUNNY     48  34  59 SW5       29.73R
EDMONTON       CLOUDY    39  30  70 NW12      29.70R WCI  32
WATERTON GATE  N/A       43  27  53 SW13G18    N/A
CARDSTON       N/A       50  27  41 S3         N/A
MILK RIVER     N/A       50  21  32 W3         N/A
$$

REGIONAL REPORTS...SASKATCHEWAN
CITY           SKY/WX    TMP DP  RH WIND       PRES   REMARKS
SWIFT CURRENT  SUNNY     48  32  54 W25G32    29.67R
MOOSE JAW      PTSUNNY   48  36  63 NW17      29.67S
REGINA         PTSUNNY   41  36  82 NW14      29.68R
ASSINIBOIA     N/A       48  32  54 W23G31     N/A
CORONACH       N/A       52  30  43 NW20G26    N/A

$$




USA.gov is the U.S. government's official web portal to all federal, state and local government web resources and services.